User: anonymous   Login
Location: Unspecified
(0.0000°N, 0.0000°E)
Time: 23:24:31
(UTC+00:00)
Language:

DSP F5R - Orbit

View from above orbital plane
View from above orbital plane
View from above satellite
View from above satellite

Ground track
Ground track

The orbit data is extracted from the following two-line orbital elements,

1 18583U 87097A   17314.21575302 0.00000000  00000-0  00000-0 0    00
2 18583  14.4569   1.4821 0023700 206.3296 153.5618  0.98383648    00
Epoch (UTC): 10 November 2017 05:10:41
Eccentricity: 0.0023700
inclination: 14.4569°
perigee height: 36223 km
apogee height: 36425 km
right ascension of ascending node: 1.4821°
argument of perigee: 206.3296°
revolutions per day: 0.98383648
mean anomaly at epoch: 153.5618°
orbit number at epoch: 0

The dashed part of the orbit path shows where the satellite is in the earth's shadow,  

DLR